Regional Weather Roundup
Issued by NWS

Home | Current Version | Previous Version | Graphics & Text | Print | Product List | Glossary On
Versions: 1 2 3 4 5 6 7 8 9 10 11 12 13 14 15 16 17 18 19 20 21 22 23 24 25 26 27 28 29 30 31 32 33 34 35 36 37 38 39 40 41 42 43 44 45 46 47 48 49 50
000
ASUS43 KIND 111509
RWRIN

WEATHER ROUNDUP FOR INDIANA
NATIONAL WEATHER SERVICE INDIANAPOLIS IN
1000 AM EST MON DEC 11 2017

NOTE: "FAIR" INDICATES FEW OR NO CLOUDS BELOW 12,000 FEET WITH NO
SIGNIFICANT WEATHER AND/OR OBSTRUCTIONS TO VISIBILITY.

* - STATION DOES NOT REPORT WEATHER SUCH AS PRECIPITATION OR FOG.

+ - STATION NOT QUALITY CONTROLLED BY THE NATIONAL WEATHER SERVICE.
    USE DATA WITH CAUTION...ESPECIALLY DEWPOINT AND RELATIVE
    HUMIDITY OBSERVATIONS.

INZ001>003-010>013-019-020-111600-
NORTHWEST INDIANA

CITY           SKY/WX    TMP DP  RH WIND       PRES   REMARKS
GARY /AIRPORT/ PTSUNNY   30  21  69 S12       29.92F WCI  21
KNOX *+        CLOUDY    28  23  80 S7        29.96F WCI  21
LA PORTE +     CLOUDY    27  21  79 S7        29.94F WCI  19
MICHIGAN CITY+ CLOUDY    30  21  69 S8        29.94F WCI  23
MONTICELLO +   PTSUNNY   28  22  76 S7        29.96F WCI  21
RENSSELAER +   CLOUDY    30  23  74 S13       29.93F WCI  20
VALPARAISO     CLOUDY    30  22  72 S13       29.93F WCI  20

$$

LMZ046-743>745-111600-
SOUTHERN LAKE MICHIGAN

STATION/POSITION TIME  TEMP    WIND        PRES    WAVE
                       AIR SEA DIR/SP/G            HT
                 (UTC) (F)     (DEG/KT/KT) (MB)    (FT)
BURNS HARBOR     1502   29     190/ 12/ 18 1013.9
MICHIGAN CITY    1440   28     160/ 12/ 17   N/A

$$

INZ004-005-014>016-021>024-111600-
NORTH CENTRAL INDIANA

CITY           SKY/WX    TMP DP  RH WIND       PRES   REMARKS
ELKHART        CLOUDY    28  21  74 S6        29.96F WCI  22
GOSHEN         CLOUDY    28  21  75 S9        29.97S WCI  19
LOGANSPORT +   CLOUDY    30  23  74 S9        29.98F WCI  22
PERU/GRISSOM   CLOUDY    29  24  81 S12       29.96F WCI  20
ROCHESTER +    CLOUDY    32  25  74 S9        29.97F WCI  24
SOUTH BEND     CLOUDY    27  23  85 S12       29.95F WCI  17
WARSAW +       CLOUDY    28  21  74 S6        29.97F WCI  22

$$

INZ006>009-017-018-025>027-111600-
NORTHEAST INDIANA

CITY           SKY/WX    TMP DP  RH WIND       PRES   REMARKS
AUBURN +       CLOUDY    30  23  74 S5        29.98F WCI  25
FORT WAYNE     CLOUDY    29  24  82 S8        29.98F WCI  21
HUNTINGTON +   CLOUDY    28  23  81 S5        29.98S WCI  23
KENDALLVILLE + CLOUDY    28  23  80 S6        29.96F WCI  22

$$

INZ028-029-035-036-043>045-051>053-111600-
WEST CENTRAL INDIANA

CITY           SKY/WX    TMP DP  RH WIND       PRES   REMARKS
CRAWFORDSVL +  MOSUNNY   29  24  81 S9          N/A  WCI  20
GREENCASTLE +  CLOUDY    30  23  74 S6        29.99F WCI  24
LAFAYETTE      PTSUNNY   29  23  78 SW8       29.97F WCI  21
TERRE HAUTE    CLOUDY    33  25  72 S8        30.01F WCI  26

$$

INZ030>032-037>040-046>048-054>057-064-065-111600-
CENTRAL INDIANA

CITY           SKY/WX    TMP DP  RH WIND       PRES   REMARKS
ANDERSON       CLOUDY    28  25  86 S6        30.01F WCI  22
COLUMBUS       SUNNY     28  23  80 S8        30.03F WCI  20
FRANKFORT +    CLOUDY    32  25  75 S10       29.98F WCI  24
GREENWOOD *+   MOSUNNY   33  27  78 S6        30.02F WCI  27
INDIANAPOLIS   PTSUNNY   30  23  75 S8        30.00F WCI  22
-EAGLE CREEK   CLOUDY    30  22  72 S9        29.99F WCI  22
KOKOMO +       CLOUDY    29  24  82 S16       29.99F WCI  17
MARION +       MOSUNNY   28  24  84 S9        29.99F HAZE    WCI  19
MT COMFORT *+  PTSUNNY   28  27  93 S9        30.00F WCI  20
SHELBYVILLE    MOSUNNY   30  23  75 S10       30.00F WCI  21
ZIONSVILLE +   CLOUDY    29  23  79 S12       29.98F WCI  19

$$

INZ033-034-041-042-049-050-058-059-111600-
EAST CENTRAL INDIANA

CITY           SKY/WX    TMP DP  RH WIND       PRES   REMARKS
MUNCIE         CLOUDY    31  23  72 S8        29.98F WCI  23
RICHMOND +     CLOUDY    28  27  93 S14       30.00F WCI  17

$$

INZ060-061-067>069-081>083-085>088-111600-
SOUTHWEST INDIANA

CITY           SKY/WX    TMP DP  RH WIND       PRES   REMARKS
EVANSVILLE     MOSUNNY   36  31  82 SW7       30.06F WCI  30
HUNTINGBURG +  PTSUNNY   34  29  82 S7        30.05F WCI  28
WASHINGTON +   CLOUDY    32  26  77 S6        30.04F WCI  27

$$

INZ062-063-066-070>080-084-089>092-111600-
SOUTH CENTRAL AND SOUTHEAST INDIANA

CITY           SKY/WX    TMP DP  RH WIND       PRES   REMARKS
BEDFORD +      CLOUDY    32  25  74 S5        30.02F WCI  27
BLOOMINGTON    MOSUNNY   33  24  69 S9        30.01F WCI  25
MADISON *+     CLOUDY    32  28  86 CALM      30.05F
NORTH VERNON + MOSUNNY   30  23  74 S6        30.04F WCI  24
SEYMOUR +      CLOUDY    34  27  75 S5        30.03F WCI  30

$$





USA.gov is the U.S. government's official web portal to all federal, state and local government web resources and services.